• In Uzbekistan
  • List of Countries
  • For 7 days
  • Water Temperature
  • Satellite Maps
  • Weather Map
  • Weather Widgets
  • user-avatar
    Login

    Hourly Weather Escaldes-Engordany

    Today, 17 October, Tuesday

    Time Temperature Precipitation Wind Pressure Humidity
    00:00 +9°C° 0 mm 1 mps 644 mmHg 82%
    01:00 +9°C° 0 mm 1 mps 644 mmHg 82%
    02:00 +9°C° 0 mm 1 mps 643 mmHg 83%
    03:00 +8°C° 0 mm 1 mps 643 mmHg 83%
    04:00 +8°C° 0 mm 1 mps 643 mmHg 78%
    05:00 +8°C° 0 mm 1 mps 642 mmHg 74%
    06:00 +7°C° 0 mm 1 mps 642 mmHg 67%
    07:00 +9°C° 0 mm 2 mps 643 mmHg 58%
    08:00 +12°C° 0 mm 2 mps 644 mmHg 49%
    09:00 +15°C° 0 mm 2 mps 645 mmHg 41%
    10:00 +16°C° 0 mm 2 mps 645 mmHg 38%
    11:00 +17°C° 0 mm 3 mps 645 mmHg 36%
    12:00 +18°C° 0 mm 3 mps 645 mmHg 34%
    13:00 +18°C° 0 mm 3 mps 645 mmHg 35%
    14:00 +18°C° 0 mm 3 mps 644 mmHg 37%
    15:00 +17°C° 0 mm 3 mps 643 mmHg 38%
    16:00 +14°C° 0 mm 3 mps 643 mmHg 49%
    17:00 +12°C° 0 mm 2 mps 642 mmHg 60%
    18:00 +9°C° 0 mm 2 mps 641 mmHg 71%
    19:00 +8°C° 0 mm 2 mps 641 mmHg 74%
    20:00 +8°C° 0 mm 2 mps 640 mmHg 78%
    21:00 +8°C° 0 mm 1 mps 640 mmHg 81%
    22:00 +8°C° 0 mm 1 mps 640 mmHg 81%
    23:00 +7°C° 0 mm 2 mps 640 mmHg 82%

    Tomorrow, 18 October, Wednesday

    Time Temperature Precipitation Wind Pressure Humidity
    00:00 +7°C° 0 mm 2 mps 639 mmHg 82%
    01:00 +7°C° 0 mm 2 mps 639 mmHg 81%
    02:00 +7°C° 0 mm 2 mps 639 mmHg 81%
    03:00 +8°C° 0 mm 2 mps 638 mmHg 80%
    04:00 +8°C° 0 mm 2 mps 638 mmHg 80%
    05:00 +8°C° 0 mm 2 mps 638 mmHg 80%
    06:00 +8°C° 0 mm 2 mps 638 mmHg 80%
    07:00 +9°C° 0 mm 2 mps 638 mmHg 76%
    08:00 +12°C° 0 mm 2 mps 639 mmHg 71%
    09:00 +14°C° 0 mm 2 mps 639 mmHg 67%
    10:00 +14°C° 0.1 mm 2 mps 639 mmHg 65%
    11:00 +14°C° 0.1 mm 3 mps 639 mmHg 63%
    12:00 +14°C° 0.1 mm 3 mps 639 mmHg 62%
    13:00 +14°C° 0.3 mm 3 mps 638 mmHg 65%
    14:00 +13°C° 0.3 mm 3 mps 637 mmHg 69%
    15:00 +13°C° 0.3 mm 3 mps 637 mmHg 72%
    16:00 +12°C° 0.3 mm 3 mps 636 mmHg 76%
    17:00 +12°C° 0.3 mm 2 mps 636 mmHg 80%
    18:00 +10°C° 0.3 mm 2 mps 635 mmHg 84%
    19:00 +9°C° 0.5 mm 2 mps 635 mmHg 85%
    20:00 +9°C° 0.5 mm 2 mps 635 mmHg 87%
    21:00 +9°C° 0.5 mm 2 mps 636 mmHg 88%
    22:00 +9°C° 1.8 mm 2 mps 635 mmHg 90%
    23:00 +9°C° 1.8 mm 2 mps 635 mmHg 92%

    Day after tomorrow, 19 October, Thursday

    Time Temperature Precipitation Wind Pressure Humidity
    00:00 +9°C° 1.8 mm 2 mps 635 mmHg 94%
    01:00 +8°C° 1.2 mm 2 mps 635 mmHg 94%
    02:00 +8°C° 1.2 mm 2 mps 635 mmHg 95%
    03:00 +8°C° 1.2 mm 2 mps 635 mmHg 96%
    04:00 +8°C° 0.1 mm 2 mps 635 mmHg 96%
    05:00 +8°C° 0.1 mm 1 mps 635 mmHg 95%
    06:00 +8°C° 0.1 mm 1 mps 635 mmHg 95%
    07:00 +9°C° 0 mm 1 mps 635 mmHg 89%
    08:00 +10°C° 0 mm 1 mps 636 mmHg 82%
    09:00 +11°C° 0 mm 1 mps 637 mmHg 76%
    10:00 +12°C° 0.1 mm 1 mps 637 mmHg 72%
    11:00 +12°C° 0.1 mm 2 mps 637 mmHg 69%
    12:00 +13°C° 0.1 mm 2 mps 637 mmHg 66%
    13:00 +13°C° 0.1 mm 2 mps 637 mmHg 67%
    14:00 +13°C° 0.1 mm 1 mps 637 mmHg 68%
    15:00 +12°C° 0.1 mm 1 mps 637 mmHg 69%
    16:00 +11°C° 0.1 mm 1 mps 637 mmHg 76%
    17:00 +10°C° 0.1 mm 1 mps 637 mmHg 83%
    18:00 +8°C° 0.1 mm 0 mps 636 mmHg 89%
    19:00 +8°C° 0.1 mm 0 mps 637 mmHg 89%
    20:00 +9°C° 0.1 mm 1 mps 638 mmHg 89%
    21:00 +9°C° 0.1 mm 1 mps 638 mmHg 89%
    22:00 +9°C° 0 mm 1 mps 638 mmHg 89%
    23:00 +8°C° 0 mm 1 mps 638 mmHg 89%

    20 October, Friday

    Time Temperature Precipitation Wind Pressure Humidity
    00:00 +8°C° 0 mm 1 mps 638 mmHg 89%
    01:00 +8°C° 0 mm 1 mps 638 mmHg 89%
    02:00 +8°C° 0 mm 1 mps 638 mmHg 88%
    03:00 +8°C° 0 mm 1 mps 638 mmHg 88%
    04:00 +7°C° 0 mm 1 mps 638 mmHg 87%
    05:00 +7°C° 0 mm 1 mps 638 mmHg 86%
    06:00 +7°C° 0 mm 1 mps 638 mmHg 86%
    07:00 +9°C° 0 mm 1 mps 639 mmHg 78%
    08:00 +12°C° 0 mm 1 mps 641 mmHg 71%
    09:00 +14°C° 0 mm 1 mps 642 mmHg 64%
    10:00 +15°C° 0 mm 2 mps 642 mmHg 59%
    11:00 +16°C° 0 mm 2 mps 642 mmHg 54%
    12:00 +17°C° 0 mm 2 mps 643 mmHg 50%
    13:00 +17°C° 0 mm 3 mps 643 mmHg 51%
    14:00 +17°C° 0 mm 3 mps 642 mmHg 53%
    15:00 +16°C° 0 mm 3 mps 642 mmHg 54%
    16:00 +14°C° 0 mm 2 mps 641 mmHg 63%
    17:00 +12°C° 0 mm 2 mps 641 mmHg 72%
    18:00 +10°C° 0 mm 1 mps 640 mmHg 81%
    19:00 +10°C° 0 mm 1 mps 640 mmHg 82%
    20:00 +9°C° 0 mm 1 mps 641 mmHg 82%
    21:00 +9°C° 0 mm 1 mps 641 mmHg 83%
    22:00 +9°C° 0 mm 1 mps 640 mmHg 84%
    23:00 +9°C° 0 mm 1 mps 640 mmHg 84%

    21 October, Saturday

    Time Temperature Precipitation Wind Pressure Humidity
    00:00 +7°C° 0 mm 2 mps 640 mmHg 84%
    01:00 +8°C° 0 mm 1 mps 640 mmHg 84%
    02:00 +8°C° 0 mm 1 mps 640 mmHg 83%
    03:00 +8°C° 0 mm 1 mps 640 mmHg 82%
    04:00 +9°C° 0 mm 1 mps 640 mmHg 80%
    05:00 +9°C° 0 mm 1 mps 640 mmHg 78%
    06:00 +9°C° 0 mm 1 mps 641 mmHg 77%
    07:00 +10°C° 0 mm 1 mps 642 mmHg 72%
    08:00 +12°C° 0 mm 1 mps 643 mmHg 67%
    09:00 +14°C° 0 mm 1 mps 644 mmHg 62%
    10:00 +14°C° 0 mm 1 mps 644 mmHg 61%
    11:00 +15°C° 0 mm 1 mps 644 mmHg 59%
    12:00 +16°C° 0 mm 2 mps 644 mmHg 57%
    13:00 +15°C° 0.1 mm 2 mps 644 mmHg 61%
    14:00 +14°C° 0.1 mm 2 mps 644 mmHg 66%
    15:00 +14°C° 0.1 mm 2 mps 643 mmHg 70%
    16:00 +12°C° 0.1 mm 2 mps 643 mmHg 77%
    17:00 +11°C° 0.1 mm 1 mps 643 mmHg 83%
    18:00 +10°C° 0.1 mm 1 mps 643 mmHg 90%
    19:00 +10°C° 0.2 mm 1 mps 643 mmHg 91%
    20:00 +9°C° 0.2 mm 1 mps 643 mmHg 92%
    21:00 +9°C° 0.2 mm 1 mps 644 mmHg 93%
    22:00 +9°C° 0.1 mm 1 mps 644 mmHg 93%
    23:00 +9°C° 0.1 mm 1 mps 643 mmHg 93%

    22 October, Sunday

    Time Temperature Precipitation Wind Pressure Humidity
    00:00 +8°C° 0.1 mm 1 mps 643 mmHg 94%
    01:00 +8°C° 0.1 mm 1 mps 643 mmHg 94%
    02:00 +8°C° 0.1 mm 1 mps 643 mmHg 94%
    03:00 +6°C° 0.1 mm 2 mps 643 mmHg 94%
    04:00 +6°C° 0 mm 2 mps 643 mmHg 94%
    05:00 +5°C° 0 mm 2 mps 643 mmHg 93%
    06:00 +5°C° 0 mm 2 mps 643 mmHg 93%
    07:00 +6°C° 0 mm 2 mps 644 mmHg 86%
    08:00 +7°C° 0 mm 2 mps 644 mmHg 80%
    09:00 +8°C° 0 mm 2 mps 645 mmHg 73%
    10:00 +9°C° 0 mm 2 mps 645 mmHg 65%
    11:00 +10°C° 0 mm 2 mps 646 mmHg 57%
    12:00 +12°C° 0 mm 2 mps 646 mmHg 49%
    13:00 +12°C° 0 mm 2 mps 646 mmHg 50%
    14:00 +12°C° 0 mm 2 mps 645 mmHg 50%
    15:00 +12°C° 0 mm 2 mps 645 mmHg 50%
    16:00 +9°C° 0 mm 2 mps 645 mmHg 59%
    17:00 +7°C° 0 mm 2 mps 644 mmHg 68%
    18:00 +5°C° 0 mm 2 mps 644 mmHg 77%
    19:00 +5°C° 0 mm 2 mps 644 mmHg 78%
    20:00 +5°C° 0 mm 1 mps 644 mmHg 79%
    21:00 +5°C° 0 mm 1 mps 644 mmHg 80%
    22:00 +5°C° 0 mm 1 mps 644 mmHg 79%
    23:00 +5°C° 0 mm 1 mps 644 mmHg 78%
    Show more